Marysville, MI

7:38 AM EDT on August 24, 2016 (GMT -0400)
Saint Clair County International

Weather History for KPHN - November, 2012

Change the Weather History Date:

Saturday, November 24, 2012

  Actual Average (KMTC) Record (KMTC)
Temperature  
Mean Temperature 32 °F -  
Max Temperature 33 °F 42 °F 62 °F (1973)
Min Temperature 32 °F 30 °F 8 °F (1950)
Degree Days  
Heating Degree Days 32    
Moisture  
Dew Point 21 °F    
Average Humidity 63    
Maximum Humidity 75    
Minimum Humidity 56    
Precipitation  
Precipitation 0.00 in - - ()
Sea Level Pressure  
Sea Level Pressure 30.01 in    
Wind  
Wind Speed 10 mph (WNW)    
Max Wind Speed 20 mph    
Max Gust Speed 26 mph    
Visibility 10 miles    
Events Snow    
Averages and records for this station are not official NWS values.
T = Trace of Precipitation, MM = Missing Value Source: NWS Daily Summary

Daily Weather History Graph

Daily Weather History Graph

Search for Another Location

Airport or City:

Trip Planner

Search our weather history database for the weather conditions in past years. The results will help you decide how hot, cold, wet, or windy it might be!

Date:

Astronomy

Nov. 24, 2012 Rise Set
Actual Time 7:33 AM EST 4:59 PM EST
Civil Twilight 7:02 AM EST 5:30 PM EST
Nautical Twilight 6:27 AM EST 6:05 PM EST
Astronomical Twilight 5:53 AM EST 6:39 PM EST
Moon 2:47 PM EST 3:45 AM EST
Length of Visible Light 10h 28m
Length of Day
9h 25m
Waxing Gibbous, 87% of the Moon is Illuminated
Nov 24
Waxing Gibbous
Nov 28
Full
Dec 6
Last Quarter
Dec 13
New
Dec 20
First Quarter

Hourly Weather History & Observations

Time (EST) Temp. Windchill Dew Point Humidity Pressure Visibility Wind Dir Wind Speed Gust Speed Precip Events Conditions
12:17 AM 33.8 °F 27.0 °F 23.0 °F 65% 29.93 in 10.0 mi West 8.1 mph 20.7 mph N/A   Overcast
12:36 AM 33.8 °F 27.0 °F 23.0 °F 65% 29.94 in 10.0 mi WNW 8.1 mph 19.6 mph N/A   Overcast
12:57 AM 33.8 °F 23.5 °F 23.0 °F 65% 29.94 in 10.0 mi WNW 16.1 mph 25.3 mph N/A   Overcast
1:16 AM 33.8 °F 24.8 °F 23.0 °F 65% 29.94 in 10.0 mi WNW 12.7 mph 19.6 mph N/A   Overcast
1:36 AM 33.8 °F 25.3 °F 23.0 °F 65% 29.94 in 10.0 mi WNW 11.5 mph 16.1 mph N/A   Overcast
1:57 AM 33.8 °F 24.8 °F 21.2 °F 60% 29.94 in 10.0 mi WNW 12.7 mph 18.4 mph N/A   Overcast
2:16 AM 33.8 °F 23.5 °F 21.2 °F 60% 29.95 in 10.0 mi WNW 16.1 mph 25.3 mph N/A   Overcast
2:37 AM 33.8 °F 24.8 °F 23.0 °F 65% 29.95 in 10.0 mi WNW 12.7 mph 20.7 mph N/A   Overcast
2:57 AM 33.8 °F 25.3 °F 23.0 °F 65% 29.95 in 10.0 mi West 11.5 mph 18.4 mph N/A   Overcast
3:16 AM 33.8 °F 24.8 °F 21.2 °F 60% 29.95 in 10.0 mi West 12.7 mph 19.6 mph N/A   Overcast
3:37 AM 33.8 °F 26.4 °F 21.2 °F 60% 29.96 in 10.0 mi West 9.2 mph 18.4 mph N/A   Overcast
3:56 AM 32.0 °F 22.1 °F 21.2 °F 64% 29.96 in 10.0 mi West 13.8 mph 20.7 mph N/A   Overcast
4:16 AM 32.0 °F 22.5 °F 21.2 °F 64% 29.96 in 10.0 mi West 12.7 mph 19.6 mph N/A   Overcast
4:37 AM 32.0 °F 24.2 °F 21.2 °F 64% 29.96 in 10.0 mi West 9.2 mph 19.6 mph N/A   Overcast
4:56 AM 32.0 °F 24.8 °F 21.2 °F 64% 29.97 in 10.0 mi West 8.1 mph 19.6 mph N/A   Overcast
5:17 AM 32.0 °F 21.6 °F 21.2 °F 64% 29.97 in 10.0 mi West 15.0 mph 23.0 mph N/A   Overcast
5:36 AM 32.0 °F 22.5 °F 21.2 °F 64% 29.98 in 10.0 mi West 12.7 mph 23.0 mph N/A   Overcast
5:56 AM 32.0 °F 24.8 °F 23.0 °F 69% 29.98 in 10.0 mi West 8.1 mph - N/A   Overcast
6:17 AM 32.0 °F 24.8 °F 21.2 °F 64% 29.99 in 10.0 mi WNW 8.1 mph 16.1 mph N/A   Overcast
6:36 AM 32.0 °F 22.1 °F 21.2 °F 64% 29.99 in 10.0 mi WNW 13.8 mph 20.7 mph N/A   Overcast
6:57 AM 32.0 °F 24.2 °F 21.2 °F 64% 30.00 in 10.0 mi West 9.2 mph 18.4 mph N/A   Overcast
7:16 AM 32.0 °F 22.5 °F 21.2 °F 64% 30.00 in 10.0 mi West 12.7 mph 18.4 mph N/A   Overcast
7:37 AM 32.0 °F 23.6 °F 21.2 °F 64% 30.01 in 10.0 mi WNW 10.4 mph - N/A   Overcast
7:57 AM 32.0 °F 24.2 °F 21.2 °F 64% 30.02 in 10.0 mi WNW 9.2 mph - N/A   Overcast
8:16 AM 32.0 °F 22.5 °F 23.0 °F 69% 30.02 in 10.0 mi WNW 12.7 mph 17.3 mph N/A   Overcast
8:37 AM 32.0 °F 23.6 °F 23.0 °F 69% 30.03 in 10.0 mi WNW 10.4 mph - N/A   Overcast
8:57 AM 32.0 °F 23.0 °F 23.0 °F 69% 30.03 in 10.0 mi WNW 11.5 mph 17.3 mph N/A   Overcast
9:16 AM 32.0 °F 24.2 °F 23.0 °F 69% 30.04 in 10.0 mi WNW 9.2 mph 16.1 mph N/A   Overcast
9:37 AM 32.0 °F 23.6 °F 23.0 °F 69% 30.04 in 10.0 mi WNW 10.4 mph 18.4 mph N/A   Overcast
9:56 AM 32.0 °F 24.2 °F 23.0 °F 69% 30.04 in 10.0 mi WNW 9.2 mph 18.4 mph N/A Snow Light Snow
10:17 AM 32.0 °F 22.1 °F 24.8 °F 75% 30.05 in 7.0 mi West 13.8 mph 21.9 mph N/A Snow Light Snow
10:36 AM 32.0 °F 23.0 °F 24.8 °F 75% 30.05 in 10.0 mi WNW 11.5 mph 17.3 mph N/A Snow Light Snow
10:56 AM 32.0 °F 23.6 °F 24.8 °F 75% 30.05 in 10.0 mi WNW 10.4 mph 17.3 mph N/A Snow Light Snow
11:17 AM 32.0 °F 24.2 °F 23.0 °F 69% 30.05 in 10.0 mi WNW 9.2 mph - N/A   Overcast
11:36 AM 32.0 °F 22.1 °F 23.0 °F 69% 30.05 in 7.0 mi WNW 13.8 mph 20.7 mph N/A Snow Light Snow
11:57 AM 32.0 °F 23.6 °F 23.0 °F 69% 30.04 in 10.0 mi WNW 10.4 mph 17.3 mph N/A   Overcast
12:16 PM 33.8 °F 23.2 °F 23.0 °F 65% 30.04 in 10.0 mi WNW 17.3 mph 26.5 mph N/A   Overcast
12:36 PM 33.8 °F 23.5 °F 21.2 °F 60% 30.03 in 10.0 mi WNW 16.1 mph 25.3 mph N/A   Overcast
12:57 PM 33.8 °F 24.3 °F 21.2 °F 60% 30.03 in 10.0 mi WNW 13.8 mph 21.9 mph N/A   Overcast
1:16 PM 33.8 °F 22.5 °F 21.2 °F 60% 30.03 in 10.0 mi WNW 19.6 mph 25.3 mph N/A   Overcast
1:37 PM 33.8 °F 24.3 °F 19.4 °F 56% 30.02 in 10.0 mi NW 13.8 mph 24.2 mph N/A   Overcast
1:57 PM 33.8 °F 23.9 °F 21.2 °F 60% 30.03 in 10.0 mi WNW 15.0 mph 19.6 mph N/A   Overcast
2:16 PM 33.8 °F 24.3 °F 21.2 °F 60% 30.03 in 10.0 mi NW 13.8 mph 20.7 mph N/A   Overcast
2:37 PM 33.8 °F 23.9 °F 19.4 °F 56% 30.03 in 10.0 mi NW 15.0 mph 20.7 mph N/A   Overcast
2:56 PM 33.8 °F 25.3 °F 19.4 °F 56% 30.03 in 10.0 mi WNW 11.5 mph 23.0 mph N/A   Overcast
3:16 PM 33.8 °F 25.3 °F 21.2 °F 60% 30.03 in 10.0 mi WNW 11.5 mph 16.1 mph N/A   Overcast
3:37 PM 33.8 °F 27.7 °F 21.2 °F 60% 30.04 in 10.0 mi WNW 6.9 mph - N/A   Overcast
3:56 PM 33.8 °F 26.4 °F 21.2 °F 60% 30.04 in 10.0 mi WNW 9.2 mph 17.3 mph N/A   Overcast
4:17 PM 33.8 °F 27.0 °F 21.2 °F 60% 30.04 in 10.0 mi WNW 8.1 mph - N/A   Overcast
4:36 PM 33.8 °F 26.4 °F 21.2 °F 60% 30.05 in 10.0 mi NW 9.2 mph - N/A   Overcast
4:57 PM 33.8 °F 28.6 °F 21.2 °F 60% 30.04 in 10.0 mi WNW 5.8 mph - N/A   Overcast
5:16 PM 33.8 °F 29.6 °F 21.2 °F 60% 30.04 in 10.0 mi WNW 4.6 mph - N/A   Overcast
5:37 PM 33.8 °F 27.7 °F 21.2 °F 60% 30.04 in 10.0 mi West 6.9 mph - N/A   Overcast
5:56 PM 33.8 °F 28.6 °F 21.2 °F 60% 30.04 in 10.0 mi West 5.8 mph - N/A   Overcast
6:16 PM 32.0 °F 27.5 °F 21.2 °F 64% 30.05 in 10.0 mi West 4.6 mph - N/A   Overcast
6:37 PM 32.0 °F 26.4 °F 21.2 °F 64% 30.05 in 10.0 mi West 5.8 mph - N/A   Overcast
6:56 PM 32.0 °F 27.5 °F 21.2 °F 64% 30.05 in 10.0 mi West 4.6 mph - N/A   Overcast
7:17 PM 32.0 °F 26.4 °F 19.4 °F 60% 30.05 in 10.0 mi West 5.8 mph - N/A   Overcast
7:37 PM 32.0 °F 27.5 °F 21.2 °F 64% 30.05 in 10.0 mi West 4.6 mph - N/A   Overcast
7:56 PM 32.0 °F 27.5 °F 21.2 °F 64% 30.04 in 10.0 mi WSW 4.6 mph - N/A   Overcast
8:17 PM 32.0 °F 24.2 °F 19.4 °F 60% 30.04 in 10.0 mi West 9.2 mph - N/A   Overcast
8:36 PM 32.0 °F 26.4 °F 19.4 °F 60% 30.04 in 10.0 mi WNW 5.8 mph - N/A   Overcast
8:57 PM 32.0 °F 26.4 °F 19.4 °F 60% 30.04 in 10.0 mi West 5.8 mph - N/A   Overcast
9:17 PM 32.0 °F 25.6 °F 19.4 °F 60% 30.04 in 10.0 mi WNW 6.9 mph - N/A   Overcast
9:36 PM 32.0 °F 26.4 °F 19.4 °F 60% 30.03 in 10.0 mi West 5.8 mph - N/A   Overcast
9:57 PM 32.0 °F 26.4 °F 19.4 °F 60% 30.03 in 10.0 mi West 5.8 mph - N/A   Overcast
10:17 PM 32.0 °F 24.8 °F 19.4 °F 60% 30.02 in 10.0 mi WNW 8.1 mph - N/A   Overcast
10:36 PM 32.0 °F 27.5 °F 19.4 °F 60% 30.02 in 10.0 mi WNW 4.6 mph - N/A   Overcast
10:57 PM 32.0 °F 27.5 °F 19.4 °F 60% 30.01 in 10.0 mi West 4.6 mph - N/A   Overcast
11:16 PM 32.0 °F - 19.4 °F 60% 30.01 in 10.0 mi Calm Calm - N/A   Overcast
11:37 PM 32.0 °F 28.7 °F 19.4 °F 60% 30.01 in 10.0 mi West 3.5 mph - N/A   Overcast
11:56 PM 32.0 °F 27.5 °F 19.4 °F 60% 30.01 in 10.0 mi WSW 4.6 mph - N/A   Overcast